Time,TemperatureF,DewpointF,PressureIn,WindDirection,WindDirectionDegrees,WindSpeedMPH,WindSpeedGustMPH,Humidity,HourlyPrecipIn,Conditions,Clouds,dailyrainin,SoftwareType,DateUTC
2013-08-21 00:01:00,73.0,64.6,30.20,SSW,203,0.0,0.0,75,0.00,,,0.00,WUHU216HW,2013-08-21 04:01:00,
2013-08-21 00:06:00,72.6,64.3,30.20,SSW,203,0.0,0.0,75,0.00,,,0.00,WUHU216HW,2013-08-21 04:06:00,
2013-08-21 00:11:00,72.6,64.3,30.20,SSW,203,0.0,0.0,75,0.00,,,0.00,WUHU216HW,2013-08-21 04:11:00,
2013-08-21 00:16:00,72.6,64.3,30.20,SSW,203,0.0,0.0,75,0.00,,,0.00,WUHU216HW,2013-08-21 04:16:00,
2013-08-21 00:21:00,72.5,64.5,30.20,SSW,203,0.0,0.0,76,0.00,,,0.00,WUHU216HW,2013-08-21 04:21:00,
2013-08-21 00:26:00,72.3,64.3,30.20,SSW,203,0.0,0.0,76,0.00,,,0.00,WUHU216HW,2013-08-21 04:26:00,
2013-08-21 00:31:00,72.3,64.3,30.20,SSW,203,0.0,0.0,76,0.00,,,0.00,WUHU216HW,2013-08-21 04:31:00,
2013-08-21 00:36:00,72.1,64.1,30.20,SSW,203,0.0,0.0,76,0.00,,,0.00,WUHU216HW,2013-08-21 04:36:00,
2013-08-21 00:41:00,71.9,63.9,30.20,SSW,203,0.0,0.0,76,0.00,,,0.00,WUHU216HW,2013-08-21 04:41:00,
2013-08-21 00:46:00,71.7,64.1,30.20,SSW,203,0.0,0.0,77,0.00,,,0.00,WUHU216HW,2013-08-21 04:46:00,
2013-08-21 00:51:00,71.7,64.1,30.20,SSW,203,0.0,0.0,77,0.00,,,0.00,WUHU216HW,2013-08-21 04:51:00,
2013-08-21 00:56:00,71.7,64.1,30.21,SSW,203,0.0,0.0,77,0.00,,,0.00,WUHU216HW,2013-08-21 04:56:00,
2013-08-21 01:01:00,71.6,63.9,30.20,SSW,203,0.0,0.0,77,0.00,,,0.00,WUHU216HW,2013-08-21 05:01:00,
2013-08-21 01:06:00,71.4,63.8,30.20,SSW,203,0.0,0.0,77,0.00,,,0.00,WUHU216HW,2013-08-21 05:06:00,
2013-08-21 01:11:00,71.4,63.8,30.20,SSW,203,0.0,0.0,77,0.00,,,0.00,WUHU216HW,2013-08-21 05:11:00,
2013-08-21 01:16:00,71.4,63.8,30.20,SSW,203,0.0,0.0,77,0.00,,,0.00,WUHU216HW,2013-08-21 05:16:00,
2013-08-21 01:21:00,71.4,63.8,30.20,SSW,203,0.0,0.0,77,0.00,,,0.00,WUHU216HW,2013-08-21 05:21:00,
2013-08-21 01:26:00,71.4,63.8,30.21,SSW,203,0.0,0.0,77,0.00,,,0.00,WUHU216HW,2013-08-21 05:26:00,
2013-08-21 01:31:00,71.2,64.0,30.21,SSW,203,0.0,0.0,78,0.00,,,0.00,WUHU216HW,2013-08-21 05:31:00,
2013-08-21 01:36:00,71.2,64.0,30.20,SSW,203,0.0,0.0,78,0.00,,,0.00,WUHU216HW,2013-08-21 05:36:00,
2013-08-21 01:41:00,71.2,64.0,30.21,SSW,203,0.0,0.0,78,0.00,,,0.00,WUHU216HW,2013-08-21 05:41:00,
2013-08-21 01:46:00,71.2,64.0,30.20,SSW,203,0.0,0.0,78,0.00,,,0.00,WUHU216HW,2013-08-21 05:46:00,
2013-08-21 01:51:00,71.2,64.0,30.20,SSW,203,0.0,0.0,78,0.00,,,0.00,WUHU216HW,2013-08-21 05:51:00,
2013-08-21 01:56:00,71.2,64.0,30.20,SSW,203,0.0,0.0,78,0.00,,,0.00,WUHU216HW,2013-08-21 05:56:00,
2013-08-21 02:01:00,71.2,64.0,30.20,SSW,203,0.0,0.0,78,0.00,,,0.00,WUHU216HW,2013-08-21 06:01:00,
2013-08-21 02:06:00,71.2,64.0,30.20,SSW,203,0.0,0.0,78,0.00,,,0.00,WUHU216HW,2013-08-21 06:06:00,
2013-08-21 02:11:00,71.2,64.0,30.20,SSW,203,0.0,0.0,78,0.00,,,0.00,WUHU216HW,2013-08-21 06:11:00,
2013-08-21 02:16:00,70.8,63.6,30.20,SSW,203,0.0,0.0,78,0.00,,,0.00,WUHU216HW,2013-08-21 06:16:00,
2013-08-21 02:21:00,70.8,63.6,30.21,SSW,203,0.0,0.0,78,0.00,,,0.00,WUHU216HW,2013-08-21 06:21:00,
2013-08-21 02:26:00,70.8,63.6,30.21,SSW,203,0.0,0.0,78,0.00,,,0.00,WUHU216HW,2013-08-21 06:26:00,
2013-08-21 02:31:00,70.8,63.6,30.20,SSW,203,0.0,0.0,78,0.00,,,0.00,WUHU216HW,2013-08-21 06:31:00,
2013-08-21 02:36:00,70.7,63.4,30.21,South,180,0.0,0.0,78,0.00,,,0.00,WUHU216HW,2013-08-21 06:36:00,
2013-08-21 02:41:00,70.7,63.4,30.20,South,180,0.0,0.0,78,0.00,,,0.00,WUHU216HW,2013-08-21 06:41:00,
2013-08-21 02:46:00,70.7,63.4,30.20,SSW,203,0.0,0.0,78,0.00,,,0.00,WUHU216HW,2013-08-21 06:46:00,
2013-08-21 02:51:00,70.7,63.4,30.20,SSW,203,0.0,0.0,78,0.00,,,0.00,WUHU216HW,2013-08-21 06:51:00,
2013-08-21 02:56:00,70.7,63.4,30.20,SSW,203,0.0,0.0,78,0.00,,,0.00,WUHU216HW,2013-08-21 06:56:00,
2013-08-21 03:00:00,70.7,63.4,30.20,South,180,0.0,0.0,78,0.00,,,0.00,WUHU216HW,2013-08-21 07:00:00,
2013-08-21 03:05:00,70.8,63.6,30.20,South,180,0.0,0.0,78,0.00,,,0.00,WUHU216HW,2013-08-21 07:05:00,
2013-08-21 03:11:00,70.8,63.6,30.20,South,180,0.0,0.0,78,0.00,,,0.00,WUHU216HW,2013-08-21 07:11:00,
2013-08-21 03:15:00,70.8,63.6,30.20,SSW,203,0.0,0.0,78,0.00,,,0.00,WUHU216HW,2013-08-21 07:15:00,
2013-08-21 03:20:00,70.8,63.6,30.20,SSW,203,0.0,0.0,78,0.00,,,0.00,WUHU216HW,2013-08-21 07:20:00,
2013-08-21 03:25:00,70.8,63.6,30.20,SSW,203,0.0,0.0,78,0.00,,,0.00,WUHU216HW,2013-08-21 07:25:00,
2013-08-21 03:30:00,70.8,63.6,30.20,SSW,203,0.0,0.0,78,0.00,,,0.00,WUHU216HW,2013-08-21 07:30:00,
2013-08-21 03:35:00,70.8,63.6,30.20,SSW,203,0.0,0.0,78,0.00,,,0.00,WUHU216HW,2013-08-21 07:35:00,
2013-08-21 03:40:00,70.8,63.6,30.20,SSW,203,0.0,0.0,78,0.00,,,0.00,WUHU216HW,2013-08-21 07:40:00,
2013-08-21 03:45:00,70.7,63.4,30.19,SSW,203,0.0,0.0,78,0.00,,,0.00,WUHU216HW,2013-08-21 07:45:00,
2013-08-21 03:50:00,70.7,63.4,30.20,SSW,203,0.0,0.0,78,0.00,,,0.00,WUHU216HW,2013-08-21 07:50:00,
2013-08-21 03:55:00,70.5,63.2,30.19,SSW,203,0.0,0.0,78,0.00,,,0.00,WUHU216HW,2013-08-21 07:55:00,
2013-08-21 04:00:00,70.3,63.1,30.19,SSW,203,0.0,0.0,78,0.00,,,0.00,WUHU216HW,2013-08-21 08:00:00,
2013-08-21 04:05:00,70.1,62.9,30.19,SSW,203,0.0,0.0,78,0.00,,,0.00,WUHU216HW,2013-08-21 08:05:00,
2013-08-21 04:10:00,70.1,62.9,30.20,SSW,203,0.0,0.0,78,0.00,,,0.00,WUHU216HW,2013-08-21 08:10:00,
2013-08-21 04:16:00,69.9,62.7,30.19,SSW,203,0.0,0.0,78,0.00,,,0.00,WUHU216HW,2013-08-21 08:16:00,
2013-08-21 04:21:00,69.8,62.5,30.20,SSW,203,0.0,0.0,78,0.00,,,0.00,WUHU216HW,2013-08-21 08:21:00,
2013-08-21 04:25:00,69.6,62.4,30.20,SSW,203,0.0,0.0,78,0.00,,,0.00,WUHU216HW,2013-08-21 08:25:00,
2013-08-21 04:31:00,69.6,62.7,30.20,SSW,203,0.0,0.0,79,0.00,,,0.00,WUHU216HW,2013-08-21 08:31:00,
2013-08-21 04:36:00,69.4,62.6,30.20,SSW,203,0.0,0.0,79,0.00,,,0.00,WUHU216HW,2013-08-21 08:36:00,
2013-08-21 04:40:00,69.2,62.4,30.20,SSW,203,0.0,0.0,79,0.00,,,0.00,WUHU216HW,2013-08-21 08:40:00,
2013-08-21 04:45:00,69.0,62.6,30.18,SSW,203,0.0,0.0,80,0.00,,,0.00,WUHU216HW,2013-08-21 08:45:00,
2013-08-21 04:51:00,68.9,62.5,30.19,SSW,203,0.0,0.0,80,0.00,,,0.00,WUHU216HW,2013-08-21 08:51:00,
2013-08-21 04:55:00,68.7,62.3,30.19,SSW,203,0.0,0.0,80,0.00,,,0.00,WUHU216HW,2013-08-21 08:55:00,
2013-08-21 05:00:00,68.7,62.3,30.19,SSW,203,0.0,0.0,80,0.00,,,0.00,WUHU216HW,2013-08-21 09:00:00,
2013-08-21 05:06:00,68.5,62.5,30.19,SSW,203,0.0,0.0,80,0.00,,,0.00,WUHU216HW,2013-08-21 09:06:00,
2013-08-21 05:11:00,68.5,62.5,30.18,SSW,203,0.0,0.0,81,0.00,,,0.00,WUHU216HW,2013-08-21 09:11:00,
2013-08-21 05:16:00,68.3,62.3,30.19,SSW,203,0.0,0.0,81,0.00,,,0.00,WUHU216HW,2013-08-21 09:16:00,
2013-08-21 05:21:00,68.3,62.3,30.19,SSW,203,0.0,0.0,81,0.00,,,0.00,WUHU216HW,2013-08-21 09:21:00,
2013-08-21 05:26:00,68.3,62.3,30.19,SSW,203,0.0,0.0,81,0.00,,,0.00,WUHU216HW,2013-08-21 09:26:00,
2013-08-21 05:31:00,68.1,62.1,30.19,SSW,203,0.0,0.0,81,0.00,,,0.00,WUHU216HW,2013-08-21 09:31:00,
2013-08-21 05:36:00,68.1,62.1,30.19,SSW,203,0.0,0.0,81,0.00,,,0.00,WUHU216HW,2013-08-21 09:36:00,
2013-08-21 05:41:00,68.1,62.1,30.20,SSW,203,0.0,0.0,81,0.00,,,0.00,WUHU216HW,2013-08-21 09:41:00,
2013-08-21 05:46:00,68.0,62.0,30.20,SSW,203,0.0,0.0,81,0.00,,,0.00,WUHU216HW,2013-08-21 09:46:00,
2013-08-21 05:51:00,67.8,61.8,30.20,SSW,203,0.0,0.0,81,0.00,,,0.00,WUHU216HW,2013-08-21 09:51:00,
2013-08-21 05:56:00,67.8,62.1,30.19,SSW,203,0.0,0.0,82,0.00,,,0.00,WUHU216HW,2013-08-21 09:56:00,
2013-08-21 06:01:00,67.6,61.9,30.20,SSW,203,0.0,0.0,82,0.00,,,0.00,WUHU216HW,2013-08-21 10:01:00,
2013-08-21 06:06:00,67.4,62.1,30.20,SSW,203,0.0,0.0,83,0.00,,,0.00,WUHU216HW,2013-08-21 10:06:00,
2013-08-21 06:11:00,67.2,61.9,30.20,SSW,203,0.0,0.0,83,0.00,,,0.00,WUHU216HW,2013-08-21 10:11:00,
2013-08-21 06:16:00,67.2,61.9,30.20,SSW,203,0.0,0.0,83,0.00,,,0.00,WUHU216HW,2013-08-21 10:16:00,
2013-08-21 06:21:00,67.2,61.9,30.20,SSW,203,0.0,0.0,83,0.00,,,0.00,WUHU216HW,2013-08-21 10:21:00,
2013-08-21 06:26:00,67.1,61.7,30.20,SSW,203,0.0,0.0,83,0.00,,,0.00,WUHU216HW,2013-08-21 10:26:00,
2013-08-21 06:31:00,67.1,61.7,30.21,SSW,203,0.0,0.0,83,0.00,,,0.00,WUHU216HW,2013-08-21 10:31:00,
2013-08-21 06:36:00,66.9,61.5,30.21,SSW,203,0.0,0.0,83,0.00,,,0.00,WUHU216HW,2013-08-21 10:36:00,
2013-08-21 06:41:00,66.9,61.5,30.21,SSW,203,0.0,0.0,83,0.00,,,0.00,WUHU216HW,2013-08-21 10:41:00,
2013-08-21 06:46:00,66.9,61.9,30.21,SSW,203,0.0,0.0,84,0.00,,,0.00,WUHU216HW,2013-08-21 10:46:00,
2013-08-21 06:51:00,66.7,61.7,30.21,SSW,203,0.0,0.0,84,0.00,,,0.00,WUHU216HW,2013-08-21 10:51:00,
2013-08-21 06:56:00,66.7,61.7,30.21,SSW,203,0.0,0.0,84,0.00,,,0.00,WUHU216HW,2013-08-21 10:56:00,
2013-08-21 07:01:00,66.7,61.7,30.21,SSW,203,0.0,0.0,84,0.00,,,0.00,WUHU216HW,2013-08-21 11:01:00,
2013-08-21 07:06:00,66.5,61.5,30.21,SSW,203,0.0,0.0,84,0.00,,,0.00,WUHU216HW,2013-08-21 11:06:00,
2013-08-21 07:11:00,66.3,61.3,30.21,SSW,203,0.0,0.0,84,0.00,,,0.00,WUHU216HW,2013-08-21 11:11:00,
2013-08-21 07:16:00,66.3,61.3,30.21,SSW,203,0.0,0.0,84,0.00,,,0.00,WUHU216HW,2013-08-21 11:16:00,
2013-08-21 07:21:00,66.3,61.7,30.21,SSW,203,0.0,0.0,85,0.00,,,0.00,WUHU216HW,2013-08-21 11:21:00,
2013-08-21 07:26:00,66.3,61.7,30.21,SSW,203,0.0,0.0,85,0.00,,,0.00,WUHU216HW,2013-08-21 11:26:00,
2013-08-21 07:31:00,66.2,61.5,30.21,SSW,203,0.0,0.0,85,0.00,,,0.00,WUHU216HW,2013-08-21 11:31:00,
2013-08-21 07:36:00,66.2,61.5,30.21,SSW,203,0.0,0.0,85,0.00,,,0.00,WUHU216HW,2013-08-21 11:36:00,
2013-08-21 07:41:00,66.3,61.7,30.21,SSW,203,0.0,0.0,85,0.00,,,0.00,WUHU216HW,2013-08-21 11:41:00,
2013-08-21 07:46:00,66.2,61.8,30.22,SSW,203,0.0,0.0,86,0.00,,,0.00,WUHU216HW,2013-08-21 11:46:00,
2013-08-21 07:51:00,66.3,62.0,30.22,SSW,203,0.0,0.0,86,0.00,,,0.00,WUHU216HW,2013-08-21 11:51:00,
2013-08-21 07:56:00,66.3,62.0,30.22,SSW,203,0.0,0.0,86,0.00,,,0.00,WUHU216HW,2013-08-21 11:56:00,
2013-08-21 08:01:00,66.5,62.2,30.22,SSW,203,0.0,0.0,86,0.00,,,0.00,WUHU216HW,2013-08-21 12:01:00,
2013-08-21 08:06:00,66.7,62.3,30.22,SSW,203,0.0,0.0,86,0.00,,,0.00,WUHU216HW,2013-08-21 12:06:00,
2013-08-21 08:11:00,66.7,62.3,30.21,SSW,203,0.0,0.0,86,0.00,,,0.00,WUHU216HW,2013-08-21 12:11:00,
2013-08-21 08:16:00,66.9,62.5,30.22,SSW,203,0.0,0.0,86,0.00,,,0.00,WUHU216HW,2013-08-21 12:16:00,
2013-08-21 08:21:00,67.1,62.7,30.22,SSW,203,0.0,0.0,86,0.00,,,0.00,WUHU216HW,2013-08-21 12:21:00,
2013-08-21 08:26:00,67.2,62.9,30.22,SSW,203,1.3,1.3,86,0.00,,,0.00,WUHU216HW,2013-08-21 12:26:00,
2013-08-21 08:31:00,67.6,63.6,30.22,SSW,203,0.0,1.3,87,0.00,,,0.00,WUHU216HW,2013-08-21 12:31:00,
2013-08-21 08:36:00,68.0,63.6,30.22,SSW,203,0.0,1.3,86,0.00,,,0.00,WUHU216HW,2013-08-21 12:36:00,
2013-08-21 08:41:00,68.1,63.8,30.22,SSW,203,0.0,0.0,86,0.00,,,0.00,WUHU216HW,2013-08-21 12:41:00,
2013-08-21 08:46:00,68.3,63.9,30.22,SSW,203,0.0,0.0,86,0.00,,,0.00,WUHU216HW,2013-08-21 12:46:00,
2013-08-21 08:51:00,68.7,64.3,30.23,SSW,203,2.0,2.0,86,0.00,,,0.00,WUHU216HW,2013-08-21 12:51:00,
2013-08-21 08:56:00,69.0,64.6,30.22,SSW,203,0.0,2.0,86,0.00,,,0.00,WUHU216HW,2013-08-21 12:56:00,
2013-08-21 09:01:00,69.4,65.0,30.23,SSW,203,0.6,2.0,86,0.00,,,0.00,WUHU216HW,2013-08-21 13:01:00,
2013-08-21 09:06:00,69.6,65.1,30.22,South,180,1.1,1.1,86,0.00,,,0.00,WUHU216HW,2013-08-21 13:06:00,
2013-08-21 09:11:00,69.9,65.2,30.22,SSW,203,0.0,1.1,85,0.00,,,0.00,WUHU216HW,2013-08-21 13:11:00,
2013-08-21 09:16:00,70.3,65.5,30.23,SSW,203,0.0,1.1,85,0.00,,,0.00,WUHU216HW,2013-08-21 13:16:00,
2013-08-21 09:21:00,70.8,66.1,30.23,SSW,203,0.6,0.6,85,0.00,,,0.00,WUHU216HW,2013-08-21 13:21:00,
2013-08-21 09:26:00,71.2,66.1,30.22,South,180,0.0,0.6,84,0.00,,,0.00,WUHU216HW,2013-08-21 13:26:00,
2013-08-21 09:31:00,71.7,66.3,30.22,SSW,203,0.0,0.6,83,0.00,,,0.00,WUHU216HW,2013-08-21 13:31:00,
2013-08-21 09:36:00,72.3,66.8,30.22,SSW,203,0.0,1.7,83,0.00,,,0.00,WUHU216HW,2013-08-21 13:36:00,
2013-08-21 09:41:00,72.6,66.8,30.22,South,180,2.2,2.2,82,0.00,,,0.00,WUHU216HW,2013-08-21 13:41:00,
2013-08-21 09:46:00,73.2,67.4,30.22,SSW,203,0.0,2.2,82,0.00,,,0.00,WUHU216HW,2013-08-21 13:46:00,
2013-08-21 09:51:00,73.5,67.4,30.22,SSW,203,0.0,2.2,81,0.00,,,0.00,WUHU216HW,2013-08-21 13:51:00,
2013-08-21 09:56:00,74.4,67.6,30.22,South,180,2.6,2.6,79,0.00,,,0.00,WUHU216HW,2013-08-21 13:56:00,
2013-08-21 10:01:00,75.0,67.3,30.22,SSW,203,3.8,5.1,77,0.00,,,0.00,WUHU216HW,2013-08-21 14:01:00,
2013-08-21 10:06:00,76.1,67.5,30.21,South,180,1.1,7.8,75,0.00,,,0.00,WUHU216HW,2013-08-21 14:06:00,
2013-08-21 10:11:00,76.6,67.3,30.21,SSW,203,0.8,7.8,73,0.00,,,0.00,WUHU216HW,2013-08-21 14:11:00,
2013-08-21 10:16:00,77.1,67.4,30.22,SSW,203,3.3,5.1,72,0.00,,,0.00,WUHU216HW,2013-08-21 14:16:00,
2013-08-21 10:21:00,78.0,67.9,30.22,SSE,158,3.5,10.0,71,0.00,,,0.00,WUHU216HW,2013-08-21 14:21:00,
2013-08-21 10:26:00,78.4,67.8,30.22,SSW,203,0.0,10.0,70,0.00,,,0.00,WUHU216HW,2013-08-21 14:26:00,
2013-08-21 10:31:00,78.9,67.9,30.22,South,180,8.2,8.2,69,0.00,,,0.00,WUHU216HW,2013-08-21 14:31:00,
2013-08-21 10:36:00,79.3,67.4,30.22,South,180,0.0,8.2,67,0.00,,,0.00,WUHU216HW,2013-08-21 14:36:00,
2013-08-21 10:41:00,79.7,67.3,30.21,SSW,203,3.8,3.8,66,0.00,,,0.00,WUHU216HW,2013-08-21 14:41:00,
2013-08-21 10:46:00,79.8,67.0,30.21,SSW,203,4.9,7.3,65,0.00,,,0.00,WUHU216HW,2013-08-21 14:46:00,
2013-08-21 10:51:00,80.4,67.1,30.21,South,180,2.4,7.3,64,0.00,,,0.00,WUHU216HW,2013-08-21 14:51:00,
2013-08-21 10:56:00,80.7,67.4,30.21,SSW,203,4.0,6.9,64,0.00,,,0.00,WUHU216HW,2013-08-21 14:56:00,
2013-08-21 11:01:00,80.9,66.7,30.22,SSW,203,6.2,6.9,62,0.00,,,0.00,WUHU216HW,2013-08-21 15:01:00,
2013-08-21 11:06:00,81.5,66.7,30.22,SW,225,7.3,7.3,61,0.00,,,0.00,WUHU216HW,2013-08-21 15:06:00,
2013-08-21 11:11:00,81.5,66.2,30.22,SW,225,2.2,7.3,60,0.00,,,0.00,WUHU216HW,2013-08-21 15:11:00,
2013-08-21 11:16:00,81.6,66.4,30.22,SSE,158,3.5,7.3,60,0.00,,,0.00,WUHU216HW,2013-08-21 15:16:00,
2013-08-21 11:21:00,81.6,65.9,30.22,SSW,203,6.4,12.0,59,0.00,,,0.00,WUHU216HW,2013-08-21 15:21:00,
2013-08-21 11:26:00,81.6,65.9,30.22,SW,225,13.4,13.4,59,0.00,,,0.00,WUHU216HW,2013-08-21 15:26:00,
2013-08-21 11:31:00,81.8,66.0,30.22,WSW,248,8.2,13.4,59,0.00,,,0.00,WUHU216HW,2013-08-21 15:31:00,
2013-08-21 11:36:00,82.2,66.9,30.22,SSW,203,4.6,13.4,60,0.00,,,0.00,WUHU216HW,2013-08-21 15:36:00,
2013-08-21 11:41:00,82.5,66.7,30.22,South,180,2.4,7.8,59,0.00,,,0.00,WUHU216HW,2013-08-21 15:41:00,
2013-08-21 11:46:00,82.7,66.9,30.22,South,180,5.1,7.8,59,0.00,,,0.00,WUHU216HW,2013-08-21 15:46:00,
2013-08-21 11:51:00,83.1,66.7,30.22,South,180,1.5,5.1,58,0.00,,,0.00,WUHU216HW,2013-08-21 15:51:00,
2013-08-21 11:56:00,83.3,66.4,30.22,South,180,5.1,5.1,57,0.00,,,0.00,WUHU216HW,2013-08-21 15:56:00,
2013-08-21 12:01:00,83.3,66.4,30.21,South,180,3.8,5.8,57,0.00,,,0.00,WUHU216HW,2013-08-21 16:01:00,
2013-08-21 12:06:00,83.4,66.0,30.21,SSW,203,4.6,6.2,56,0.00,,,0.00,WUHU216HW,2013-08-21 16:06:00,
2013-08-21 12:11:00,83.4,66.0,30.22,SSE,158,3.1,6.2,56,0.00,,,0.00,WUHU216HW,2013-08-21 16:11:00,
2013-08-21 12:16:00,83.4,66.0,30.22,SSW,203,3.5,6.4,56,0.00,,,0.00,WUHU216HW,2013-08-21 16:16:00,
2013-08-21 12:21:00,83.6,66.2,30.22,South,180,9.1,9.1,56,0.00,,,0.00,WUHU216HW,2013-08-21 16:21:00,
2013-08-21 12:26:00,84.0,66.1,30.22,SSW,203,3.3,9.1,55,0.00,,,0.00,WUHU216HW,2013-08-21 16:26:00,
2013-08-21 12:31:00,84.0,66.1,30.22,South,180,2.6,9.1,55,0.00,,,0.00,WUHU216HW,2013-08-21 16:31:00,
2013-08-21 12:36:00,84.3,66.4,30.22,WSW,248,6.9,8.5,55,0.00,,,0.00,WUHU216HW,2013-08-21 16:36:00,
2013-08-21 12:41:00,84.3,65.9,30.22,SSE,158,6.4,8.5,54,0.00,,,0.00,WUHU216HW,2013-08-21 16:41:00,
2013-08-21 12:46:00,84.3,65.9,30.21,SSW,203,3.1,6.9,54,0.00,,,0.00,WUHU216HW,2013-08-21 16:46:00,
2013-08-21 12:51:00,84.3,65.4,30.21,SSW,203,4.6,9.3,53,0.00,,,0.00,WUHU216HW,2013-08-21 16:51:00,
2013-08-21 12:56:00,84.3,65.4,30.21,SSW,203,4.0,9.3,53,0.00,,,0.00,WUHU216HW,2013-08-21 16:56:00,
2013-08-21 13:01:00,84.7,65.7,30.21,West,270,2.0,5.8,53,0.00,,,0.00,WUHU216HW,2013-08-21 17:01:00,
2013-08-21 13:06:00,84.9,65.3,30.21,NNW,338,6.7,8.0,52,0.00,,,0.00,WUHU216HW,2013-08-21 17:06:00,
2013-08-21 13:11:00,84.9,64.8,30.21,SSW,203,3.3,8.0,51,0.00,,,0.00,WUHU216HW,2013-08-21 17:11:00,
2013-08-21 13:16:00,85.1,65.5,30.21,SW,225,3.1,6.7,52,0.00,,,0.00,WUHU216HW,2013-08-21 17:16:00,
2013-08-21 13:21:00,85.4,65.3,30.21,SSW,203,6.7,6.7,51,0.00,,,0.00,WUHU216HW,2013-08-21 17:21:00,
2013-08-21 13:26:00,85.6,64.9,30.20,SSW,203,1.7,6.7,50,0.00,,,0.00,WUHU216HW,2013-08-21 17:26:00,
2013-08-21 13:31:00,85.8,65.6,30.20,SW,225,3.8,6.7,51,0.00,,,0.00,WUHU216HW,2013-08-21 17:31:00,
2013-08-21 13:36:00,86.1,65.9,30.19,NW,315,0.0,7.6,51,0.00,,,0.00,WUHU216HW,2013-08-21 17:36:00,
2013-08-21 13:41:00,86.1,65.9,30.20,WSW,248,0.0,10.5,51,0.00,,,0.00,WUHU216HW,2013-08-21 17:41:00,
2013-08-21 13:46:00,86.1,65.9,30.20,NW,315,0.0,10.5,51,0.00,,,0.00,WUHU216HW,2013-08-21 17:46:00,
2013-08-21 13:51:00,86.5,65.7,30.20,SW,225,3.3,9.6,50,0.00,,,0.00,WUHU216HW,2013-08-21 17:51:00,
2013-08-21 13:56:00,86.7,66.4,30.20,South,180,2.4,9.6,51,0.00,,,0.00,WUHU216HW,2013-08-21 17:56:00,
2013-08-21 14:01:00,87.2,66.9,30.20,West,270,2.0,3.8,51,0.00,,,0.00,WUHU216HW,2013-08-21 18:01:00,
2013-08-21 14:06:00,87.0,66.7,30.20,NNW,338,3.3,3.8,51,0.00,,,0.00,WUHU216HW,2013-08-21 18:06:00,
2013-08-21 14:11:00,87.0,66.7,30.20,SSW,203,6.4,6.4,51,0.00,,,0.00,WUHU216HW,2013-08-21 18:11:00,
2013-08-21 14:16:00,87.0,66.7,30.20,West,270,4.2,11.1,51,0.00,,,0.00,WUHU216HW,2013-08-21 18:16:00,
2013-08-21 14:21:00,87.0,66.7,30.20,WSW,248,1.7,11.1,51,0.00,,,0.00,WUHU216HW,2013-08-21 18:21:00,
2013-08-21 14:26:00,87.6,67.2,30.19,NNW,338,0.0,6.0,51,0.00,,,0.00,WUHU216HW,2013-08-21 18:26:00,
2013-08-21 14:37:00,88.8,68.4,30.19,SW,225,4.2,7.3,51,0.00,,,0.00,WUHU216HW,2013-08-21 18:37:00,
2013-08-21 14:42:00,88.8,67.8,30.19,SW,225,0.0,4.4,50,0.00,,,0.00,WUHU216HW,2013-08-21 18:42:00,
2013-08-21 14:47:00,89.2,68.2,30.19,West,270,0.0,4.4,50,0.00,,,0.00,WUHU216HW,2013-08-21 18:47:00,
2013-08-21 14:52:00,89.4,68.3,30.19,SW,225,0.0,2.9,50,0.00,,,0.00,WUHU216HW,2013-08-21 18:52:00,
2013-08-21 14:57:00,89.4,68.5,30.19,SW,225,0.0,4.2,50,0.00,,,0.00,WUHU216HW,2013-08-21 18:57:00,
2013-08-21 15:02:00,89.7,68.7,30.19,SW,225,0.0,4.2,50,0.00,,,0.00,WUHU216HW,2013-08-21 19:02:00,
2013-08-21 15:07:00,89.7,68.0,30.18,SSW,203,0.0,6.0,49,0.00,,,0.00,WUHU216HW,2013-08-21 19:07:00,
2013-08-21 15:12:00,90.3,69.1,30.18,SSW,203,0.0,6.0,50,0.00,,,0.00,WUHU216HW,2013-08-21 19:12:00,
2013-08-21 15:28:00,89.9,68.2,30.18,WSW,248,1.7,1.7,49,0.00,,,0.00,WUHU216HW,2013-08-21 19:28:00,
2013-08-21 15:33:00,90.1,69.0,30.18,SSW,203,2.6,3.3,50,0.00,,,0.00,WUHU216HW,2013-08-21 19:33:00,
2013-08-21 15:38:00,90.1,69.0,30.18,SSW,203,2.6,3.3,50,0.00,,,0.00,WUHU216HW,2013-08-21 19:38:00,
2013-08-21 16:58:00,91.9,68.7,30.15,SSW,203,0.0,0.0,47,0.00,,,0.00,WUHU216HW,2013-08-21 20:58:00,
2013-08-21 17:03:00,91.5,68.3,30.15,West,270,0.0,2.4,47,0.00,,,0.00,WUHU216HW,2013-08-21 21:03:00,
2013-08-21 17:08:00,91.5,67.7,30.15,SW,225,2.0,3.5,46,0.00,,,0.00,WUHU216HW,2013-08-21 21:08:00,
2013-08-21 17:13:00,91.5,67.7,30.15,NW,315,0.0,6.7,46,0.00,,,0.00,WUHU216HW,2013-08-21 21:13:00,
2013-08-21 17:18:00,91.5,67.7,30.15,South,180,2.0,6.7,46,0.00,,,0.00,WUHU216HW,2013-08-21 21:18:00,
2013-08-21 17:23:00,91.5,67.7,30.14,SSW,203,2.2,3.5,46,0.00,,,0.00,WUHU216HW,2013-08-21 21:23:00,
2013-08-21 17:28:00,91.4,67.5,30.14,SSW,203,0.6,3.5,46,0.00,,,0.00,WUHU216HW,2013-08-21 21:28:00,
2013-08-21 17:33:00,91.7,68.5,30.14,SW,225,3.8,3.8,47,0.00,,,0.00,WUHU216HW,2013-08-21 21:33:00,
2013-08-21 17:38:00,91.4,67.5,30.15,West,270,1.5,3.8,46,0.00,,,0.00,WUHU216HW,2013-08-21 21:38:00,
2013-08-21 17:43:00,91.5,68.3,30.14,SSW,203,6.2,6.2,47,0.00,,,0.00,WUHU216HW,2013-08-21 21:43:00,
2013-08-21 17:48:00,91.7,68.5,30.14,South,180,0.0,6.2,47,0.00,,,0.00,WUHU216HW,2013-08-21 21:48:00,
2013-08-21 17:53:00,91.2,67.7,30.13,SSW,203,6.2,6.2,46,0.00,,,0.00,WUHU216HW,2013-08-21 21:53:00,
2013-08-21 17:58:00,91.0,67.8,30.13,South,180,0.8,6.2,47,0.00,,,0.00,WUHU216HW,2013-08-21 21:58:00,
2013-08-21 19:05:00,88.8,67.2,30.12,SSW,203,3.1,3.1,49,0.00,,,0.00,WUHU216HW,2013-08-21 23:05:00,
2013-08-21 19:10:00,88.5,67.5,30.12,SSE,158,1.1,4.4,50,0.00,,,0.00,WUHU216HW,2013-08-21 23:10:00,
2013-08-21 19:15:00,88.5,67.5,30.12,South,180,2.6,4.4,50,0.00,,,0.00,WUHU216HW,2013-08-21 23:15:00,
2013-08-21 19:20:00,88.5,67.5,30.11,SSW,203,7.6,7.6,50,0.00,,,0.00,WUHU216HW,2013-08-21 23:20:00,
2013-08-21 19:25:00,88.3,67.9,30.11,SSW,203,0.0,7.6,51,0.00,,,0.00,WUHU216HW,2013-08-21 23:25:00,
2013-08-21 19:30:00,88.3,67.9,30.11,South,180,0.0,3.5,51,0.00,,,0.00,WUHU216HW,2013-08-21 23:30:00,
2013-08-21 19:35:00,87.9,67.6,30.11,SSE,158,0.0,3.5,51,0.00,,,0.00,WUHU216HW,2013-08-21 23:35:00,
2013-08-21 19:40:00,87.6,67.8,30.11,SSE,158,0.0,0.8,52,0.00,,,0.00,WUHU216HW,2013-08-21 23:40:00,
2013-08-21 19:45:00,87.4,67.6,30.11,South,180,1.1,1.1,52,0.00,,,0.00,WUHU216HW,2013-08-21 23:45:00,
2013-08-21 19:50:00,86.7,67.5,30.11,South,180,0.8,2.4,53,0.00,,,0.00,WUHU216HW,2013-08-21 23:50:00,
2013-08-21 19:55:00,86.5,67.3,30.11,SSW,203,0.8,2.4,53,0.00,,,0.00,WUHU216HW,2013-08-21 23:55:00,
2013-08-21 20:01:00,86.1,67.5,30.11,South,180,0.0,2.4,54,0.00,,,0.00,WUHU216HW,2013-08-22 00:01:00,
2013-08-21 20:06:00,85.8,67.7,30.10,SSE,158,1.1,2.4,55,0.00,,,0.00,WUHU216HW,2013-08-22 00:06:00,
2013-08-21 20:11:00,85.6,67.5,30.11,South,180,2.6,2.6,55,0.00,,,0.00,WUHU216HW,2013-08-22 00:11:00,
2013-08-21 20:16:00,85.1,67.6,30.11,South,180,0.0,2.6,56,0.00,,,0.00,WUHU216HW,2013-08-22 00:16:00,
2013-08-21 20:21:00,84.7,67.2,30.11,SSW,203,0.0,2.2,56,0.00,,,0.00,WUHU216HW,2013-08-22 00:21:00,
2013-08-21 20:26:00,84.5,67.6,30.11,South,180,0.0,0.0,57,0.00,,,0.00,WUHU216HW,2013-08-22 00:26:00,
2013-08-21 20:31:00,84.3,67.4,30.12,South,180,0.0,0.0,57,0.00,,,0.00,WUHU216HW,2013-08-22 00:31:00,
2013-08-21 20:36:00,84.0,67.6,30.12,South,180,0.0,0.0,58,0.00,,,0.00,WUHU216HW,2013-08-22 00:36:00,
2013-08-21 20:41:00,83.6,67.3,30.13,SSW,203,0.0,0.0,58,0.00,,,0.00,WUHU216HW,2013-08-22 00:41:00,
2013-08-21 20:46:00,83.4,67.6,30.13,SSW,203,0.0,0.0,59,0.00,,,0.00,WUHU216HW,2013-08-22 00:46:00,
2013-08-21 20:51:00,83.1,67.2,30.13,SSW,203,0.0,0.0,59,0.00,,,0.00,WUHU216HW,2013-08-22 00:51:00,
2013-08-21 20:56:00,82.9,67.6,30.13,SSW,203,0.0,0.0,60,0.00,,,0.00,WUHU216HW,2013-08-22 00:56:00,
2013-08-21 21:01:00,82.7,67.4,30.14,SSW,203,0.0,0.0,60,0.00,,,0.00,WUHU216HW,2013-08-22 01:01:00,
2013-08-21 21:06:00,82.5,67.2,30.15,SSW,203,0.0,0.0,60,0.00,,,0.00,WUHU216HW,2013-08-22 01:06:00,
2013-08-21 21:11:00,82.4,67.1,30.15,SSW,203,0.0,0.0,60,0.00,,,0.00,WUHU216HW,2013-08-22 01:11:00,
2013-08-21 21:16:00,82.2,67.3,30.15,SSW,203,0.0,0.0,61,0.00,,,0.00,WUHU216HW,2013-08-22 01:16:00,
2013-08-21 21:21:00,82.0,67.2,30.16,SSW,203,0.0,0.0,61,0.00,,,0.00,WUHU216HW,2013-08-22 01:21:00,
2013-08-21 21:26:00,81.6,66.9,30.16,SSW,203,0.0,0.0,61,0.00,,,0.00,WUHU216HW,2013-08-22 01:26:00,
2013-08-21 21:31:00,81.6,66.9,30.16,SSW,203,0.0,0.0,61,0.00,,,0.00,WUHU216HW,2013-08-22 01:31:00,
2013-08-21 21:36:00,81.5,67.1,30.16,SSW,203,0.0,0.0,62,0.00,,,0.00,WUHU216HW,2013-08-22 01:36:00,
2013-08-21 21:41:00,81.1,67.3,30.16,SSW,203,0.0,0.0,63,0.00,,,0.00,WUHU216HW,2013-08-22 01:41:00,
2013-08-21 21:46:00,80.7,66.9,30.16,SSW,203,0.0,0.0,63,0.00,,,0.00,WUHU216HW,2013-08-22 01:46:00,
2013-08-21 21:51:00,80.6,67.2,30.16,SSW,203,0.0,0.0,64,0.00,,,0.00,WUHU216HW,2013-08-22 01:51:00,
2013-08-21 21:56:00,80.2,66.9,30.16,SSW,203,0.0,0.0,64,0.00,,,0.00,WUHU216HW,2013-08-22 01:56:00,
2013-08-21 22:01:00,79.8,67.0,30.16,SSW,203,0.0,0.0,65,0.00,,,0.00,WUHU216HW,2013-08-22 02:01:00,
2013-08-21 22:06:00,79.7,66.8,30.16,SSW,203,0.0,0.0,65,0.00,,,0.00,WUHU216HW,2013-08-22 02:06:00,
2013-08-21 22:11:00,79.5,66.7,30.16,SSW,203,0.0,0.0,65,0.00,,,0.00,WUHU216HW,2013-08-22 02:11:00,
2013-08-21 22:16:00,79.3,66.5,30.16,South,180,1.1,1.1,65,0.00,,,0.00,WUHU216HW,2013-08-22 02:16:00,
2013-08-21 22:21:00,79.1,66.3,30.16,SSW,203,0.0,1.1,65,0.00,,,0.00,WUHU216HW,2013-08-22 02:21:00,
2013-08-21 22:26:00,78.9,66.6,30.17,SSW,203,2.4,2.4,66,0.00,,,0.00,WUHU216HW,2013-08-22 02:26:00,
2013-08-21 22:31:00,78.9,66.6,30.17,SSW,203,0.0,2.4,66,0.00,,,0.00,WUHU216HW,2013-08-22 02:31:00,
2013-08-21 22:36:00,78.6,66.2,30.16,South,180,0.0,2.4,66,0.00,,,0.00,WUHU216HW,2013-08-22 02:36:00,
2013-08-21 22:41:00,78.6,66.2,30.16,SSW,203,0.0,0.0,66,0.00,,,0.00,WUHU216HW,2013-08-22 02:41:00,
2013-08-21 22:45:00,78.4,66.5,30.16,SSW,203,0.0,1.5,67,0.00,,,0.00,WUHU216HW,2013-08-22 02:45:00,
2013-08-21 22:50:00,78.0,66.2,30.15,SSW,203,0.0,1.5,67,0.00,,,0.00,WUHU216HW,2013-08-22 02:50:00,
2013-08-21 22:55:00,78.0,66.2,30.16,South,180,0.0,0.8,67,0.00,,,0.00,WUHU216HW,2013-08-22 02:55:00,
2013-08-21 23:00:00,77.9,66.0,30.16,SSW,203,0.0,0.0,67,0.00,,,0.00,WUHU216HW,2013-08-22 03:00:00,
2013-08-21 23:05:00,77.9,66.2,30.15,SSW,203,0.8,0.8,67,0.00,,,0.00,WUHU216HW,2013-08-22 03:05:00,
2013-08-21 23:10:00,77.9,66.0,30.15,South,180,0.0,0.8,67,0.00,,,0.00,WUHU216HW,2013-08-22 03:10:00,
2013-08-21 23:15:00,78.0,66.2,30.15,SSW,203,0.0,0.0,67,0.00,,,0.00,WUHU216HW,2013-08-22 03:15:00,
2013-08-21 23:20:00,78.0,66.2,30.15,SSW,203,0.0,0.0,67,0.00,,,0.00,WUHU216HW,2013-08-22 03:20:00,
2013-08-21 23:25:00,78.0,66.2,30.15,South,180,0.0,0.0,67,0.00,,,0.00,WUHU216HW,2013-08-22 03:25:00,
2013-08-21 23:30:00,78.0,66.2,30.15,South,180,0.0,0.0,67,0.00,,,0.00,WUHU216HW,2013-08-22 03:30:00,
2013-08-21 23:35:00,78.4,66.1,30.15,SSW,203,0.0,4.0,66,0.00,,,0.00,WUHU216HW,2013-08-22 03:35:00,
2013-08-21 23:40:00,78.6,65.8,30.16,SW,225,3.8,4.0,65,0.00,,,0.00,WUHU216HW,2013-08-22 03:40:00,
2013-08-21 23:45:00,79.3,66.0,30.16,SSW,203,0.8,3.8,64,0.00,,,0.00,WUHU216HW,2013-08-22 03:45:00,
2013-08-21 23:50:00,80.2,66.4,30.16,SW,225,12.3,12.3,63,0.00,,,0.00,WUHU216HW,2013-08-22 03:50:00,
2013-08-21 23:55:00,80.6,66.3,30.15,SW,225,8.7,12.3,62,0.00,,,0.00,WUHU216HW,2013-08-22 03:55:00,